Weather History for Rockford, IL

Change the Weather History Date:

Friday, May 3, 2013

  Actual Average Record
Temperature  
Mean Temperature 46 °F 56 °F  
Max Temperature 52 °F 68 °F 91 °F (1938)
Min Temperature 40 °F 44 °F 26 °F (2005)
Degree Days  
Heating Degree Days 19 10  
Month to date heating degree days 34 30  
Since 1 July heating degree days 6410 6370  
Cooling Degree Days 0 1  
Month to date cooling degree days 7 1  
Year to date cooling degree days 16 9  
Moisture  
Dew Point 42 °F    
Average Humidity 90    
Maximum Humidity 93    
Minimum Humidity 86    
Precipitation  
Precipitation 0.28 in 0.12 in 1.15 in (1935)
Month to date precipitation 0.44 0.34  
Year to date precipitation 16.74 8.79  
Snow  
Snow 0.00 in 0.00 in T in (1976)
Month to date snowfall 0.0 0.0  
Since 1 July snowfall 40.5 36.7  
Snow Depth 0.00 in    
Sea Level Pressure  
Sea Level Pressure 30.06 in    
Wind  
Wind Speed 13 mph (NE)    
Max Wind Speed 26 mph    
Max Gust Speed 30 mph    
Visibility 9 miles    
Events Rain    
T = Trace of Precipitation, MM = Missing Value Source: NWS Daily Summary

Daily Weather History Graph

Daily Weather History Graph

Search for Another Location

Airport:

Trip Planner

Search our weather history database for the weather conditions in past years. The results will help you decide how hot, cold, wet, or windy it might be!

Date:

Astronomy

May. 03, 2013 Rise Set
Actual Time 5:48 AM CDT 7:58 PM CDT
Civil Twilight 5:18 AM CDT 8:29 PM CDT
Nautical Twilight 4:40 AM CDT 9:07 PM CDT
Astronomical Twilight 3:58 AM CDT 9:48 PM CDT
Moon 2:20 AM CDT (5/3) 1:46 PM CDT (5/3)
Length of Visible Light 15h 10m
Length of Day
14h 09m
Last Quarter, 37% of the Moon is Illuminated
May 3
Last Quarter
May 9
New
May 17
First Quarter
May 24
Full
May 31
Last Quarter

Hourly Weather History & Observations

Time (CDT) Temp. Windchill Dew Point Humidity Pressure Visibility Wind Dir Wind Speed Gust Speed Precip Events Conditions
12:54 AM 41.0 °F 30.2 °F 39.0 °F 93% 30.15 in 10.0 mi NNE 27.6 mph 32.2 mph 0.02 in Rain Light Rain
1:02 AM 42.8 °F 34.5 °F 39.2 °F 87% 30.14 in 10.0 mi NNE 18.4 mph 32.2 mph N/A   Overcast
1:35 AM 41.0 °F 32.5 °F 37.4 °F 87% 30.15 in 10.0 mi NNE 17.3 mph 26.5 mph 0.00 in Rain Light Rain
1:43 AM 41.0 °F 33.5 °F 37.4 °F 87% 30.15 in 10.0 mi NNE 13.8 mph 23.0 mph 0.00 in Rain Light Rain
1:54 AM 41.0 °F 32.8 °F 37.9 °F 89% 30.16 in 10.0 mi NNE 16.1 mph - 0.00 in   Overcast
2:17 AM 41.0 °F 33.5 °F 37.4 °F 87% 30.14 in 10.0 mi NNE 13.8 mph - 0.00 in Rain Light Rain
2:54 AM 41.0 °F 34.3 °F 37.9 °F 89% 30.13 in 10.0 mi North 11.5 mph - 0.00 in Rain Light Rain
3:54 AM 41.0 °F 34.7 °F 37.9 °F 89% 30.13 in 10.0 mi NNE 10.4 mph - 0.00 in Rain Light Rain
4:54 AM 41.0 °F 34.7 °F 37.9 °F 89% 30.12 in 10.0 mi NNE 10.4 mph - 0.00 in Rain Light Rain
5:35 AM 39.2 °F 32.0 °F 37.4 °F 93% 30.11 in 8.0 mi NNE 11.5 mph - 0.01 in Rain Light Rain
5:54 AM 39.9 °F 33.9 °F 37.9 °F 93% 30.12 in 8.0 mi NNE 9.2 mph - 0.02 in Rain Light Rain
6:54 AM 41.0 °F 33.5 °F 37.9 °F 89% 30.09 in 7.0 mi NNE 13.8 mph - 0.00 in   Overcast
7:54 AM 42.1 °F 36.1 °F 39.0 °F 89% 30.10 in 7.0 mi NE 10.4 mph - 0.00 in Rain Light Rain
8:54 AM 42.1 °F 35.2 °F 39.0 °F 89% 30.09 in 7.0 mi NE 12.7 mph - 0.02 in Rain Light Rain
9:54 AM 43.0 °F 36.0 °F 39.9 °F 89% 30.07 in 8.0 mi NE 13.8 mph - 0.01 in Rain Light Rain
10:54 AM 44.1 °F 37.4 °F 41.0 °F 89% 30.08 in 5.0 mi ENE 13.8 mph - 0.03 in Rain Light Rain
11:54 AM 45.0 °F 38.2 °F 42.1 °F 90% 30.05 in 9.0 mi NE 15.0 mph - 0.03 in Rain Light Rain
12:54 PM 46.0 °F 40.6 °F 44.1 °F 93% 30.04 in 6.0 mi ENE 11.5 mph - 0.13 in Rain Light Rain
1:54 PM 46.9 °F - 45.0 °F 93% 30.03 in 6.0 mi ENE 11.5 mph - 0.03 in Rain Light Rain
2:54 PM 48.9 °F - 46.9 °F 93% 30.01 in 10.0 mi NE 12.7 mph - 0.01 in Rain Light Rain
3:54 PM 50.0 °F - 48.0 °F 93% 30.00 in 9.0 mi ENE 10.4 mph - 0.00 in   Overcast
4:54 PM 51.1 °F - 48.9 °F 92% 29.99 in 9.0 mi NE 11.5 mph - N/A   Overcast
5:54 PM 52.0 °F - 48.9 °F 89% 29.99 in 10.0 mi NE 10.4 mph - 0.00 in   Overcast
6:54 PM 52.0 °F - 48.9 °F 89% 29.99 in 10.0 mi NE 11.5 mph - N/A   Overcast
7:19 PM 51.8 °F - 48.2 °F 88% 29.98 in 10.0 mi ENE 11.5 mph - N/A   Overcast
7:54 PM 50.0 °F - 48.0 °F 93% 29.98 in 9.0 mi NE 11.5 mph - N/A   Overcast
8:54 PM 48.9 °F - 46.9 °F 93% 29.99 in 9.0 mi ENE 15.0 mph - N/A   Overcast
9:54 PM 48.9 °F - 46.0 °F 90% 29.99 in 10.0 mi NE 15.0 mph 23.0 mph N/A   Overcast
10:54 PM 50.0 °F - 46.0 °F 86% 29.98 in 10.0 mi ENE 12.7 mph - N/A   Overcast
11:54 PM 50.0 °F - 46.9 °F 89% 29.97 in 10.0 mi ENE 15.0 mph 21.9 mph N/A   Overcast